Theta_e
307 306 308 308 306 306 304 302 304 309 311 311 309 310 311 311 310 311 312 312 313 317 319 318 318 314 316 316 318 319 323 326 326 325 324 320 324 327 328 329 329 330 331 334 338
305 307 306 306 306 308 307 303 301 306 309 310 309 308 311 311 310 313 310 309 310 311 313 315 315 315 315 318 318 321 326 325 324 322 321 319 320 325 328 328 329 331 333 336 335
305 305 306 304 304 304 308 306 301 301 306 308 308 309 308 311 314 313 311 310 308 309 310 313 314 314 316 320 319 322 324 323 320 318 317 317 319 321 327 330 329 330 333 337 337
303 305 304 305 305 303 303 308 306 306 304 304 308 308 308 311 312 313 313 313 312 310 311 314 313 314 316 321 320 321 322 323 318 315 314 317 318 319 322 328 328 329 332 336 336
302 302 304 303 303 303 303 306 306 306 305 303 306 308 309 312 312 312 313 312 314 313 313 313 312 313 317 319 318 321 320 321 321 316 314 315 316 318 318 321 326 328 333 335 336
301 301 301 301 303 301 302 303 306 306 306 304 306 308 310 311 311 311 312 311 312 313 314 310 310 311 312 315 315 318 320 321 320 318 315 315 316 316 317 317 318 324 330 334 335
299 299 300 300 300 302 301 302 304 305 306 305 305 307 310 310 310 310 309 309 310 312 313 313 310 309 310 311 311 311 312 316 321 321 320 314 316 317 316 316 316 316 319 329 333
298 298 298 299 301 302 301 301 302 304 305 305 305 307 308 308 309 310 310 312 311 311 312 313 313 310 310 310 310 311 313 316 317 318 315 313 316 318 317 316 316 316 317 317 323
298 298 297 299 299 300 302 300 301 303 304 305 305 307 306 307 307 308 309 310 312 313 313 313 314 313 310 310 310 311 314 315 316 316 316 314 316 316 315 314 315 316 316 317 319
299 299 298 297 297 298 299 301 300 301 304 305 306 306 305 306 308 307 308 309 310 310 314 314 313 313 312 309 309 308 310 312 314 314 311 314 314 316 312 311 312 313 314 315 316
299 299 300 298 295 298 300 300 301 303 304 305 306 306 307 306 307 308 309 309 309 310 312 313 314 313 312 310 309 308 309 310 311 310 309 311 313 313 313 312 312 312 311 311 313
299 299 300 299 296 296 300 301 302 303 304 304 305 306 307 306 306 308 309 309 309 311 310 314 314 312 311 311 310 309 308 309 310 308 309 310 311 311 311 312 312 313 313 312 311
299 299 299 299 297 297 300 301 301 302 304 304 304 305 306 307 308 308 309 308 309 310 310 312 312 312 311 311 311 310 309 307 307 309 309 309 309 309 310 310 310 310 310 311 311
298 299 299 300 297 298 299 300 299 300 303 303 305 305 305 306 307 308 309 308 309 309 309 310 311 311 312 311 310 309 309 308 308 307 305 308 307 311 310 310 309 309 309 310 310
298 299 299 299 299 299 299 298 298 298 303 305 304 304 306 306 306 306 309 308 309 309 309 309 310 311 312 312 311 309 308 309 308 307 308 307 308 308 309 308 308 309 308 308 308
299 299 299 298 298 298 298 299 300 301 302 304 302 305 305 306 305 306 307 307 307 308 309 308 310 311 311 310 311 310 309 308 308 308 309 307 307 307 309 308 308 307 307 306 307
299 299 298 298 298 298 298 299 301 301 301 303 305 305 305 305 305 306 307 308 309 309 310 309 310 310 310 312 311 310 309 311 310 312 309 307 307 307 309 307 308 308 308 308 307
299 299 298 298 296 298 298 299 301 301 301 302 304 304 306 304 305 305 306 307 307 308 308 309 310 310 310 310 311 311 310 311 310 311 309 307 307 307 309 308 307 307 307 305 304
299 299 298 297 296 297 298 301 301 301 302 303 304 305 306 304 304 305 305 306 306 307 308 309 308 308 309 310 310 310 312 309 309 306 310 309 308 308 309 308 307 308 306 304 302
299 298 298 296 297 298 298 301 301 300 302 303 304 304 304 305 304 304 305 304 306 306 306 307 308 308 309 309 310 310 310 311 311 311 310 307 308 308 310 310 309 308 305 302 301
299 297 296 297 297 297 302 301 299 298 300 302 303 302 303 304 304 304 304 304 304 304 306 307 308 308 308 310 310 310 311 311 310 310 309 310 309 309 311 310 309 306 304 303 300
297 298 296 297 298 298 301 298 298 298 298 300 301 302 304 303 304 304 304 304 302 304 305 306 307 306 308 306 308 309 310 311 312 312 311 310 309 307 309 309 307 303 303 300 298
296 296 296 297 300 300 297 298 299 299 298 299 300 301 301 304 303 303 303 299 300 303 305 305 307 306 306 306 308 310 310 310 311 311 312 312 308 307 307 307 306 304 301 298 296
297 299 296 297 296 298 298 298 300 297 297 298 300 301 302 301 301 302 302 300 300 301 302 304 305 306 305 306 306 310 309 311 312 314 312 312 309 307 307 308 305 303 301 298 296
297 297 296 298 298 298 298 298 299 299 297 297 300 301 302 301 301 302 302 299 300 301 302 304 305 305 305 305 305 307 306 306 312 311 313 312 311 309 307 308 305 302 299 297 295
296 297 296 296 297 298 298 297 298 297 297 297 300 297 298 301 299 300 301 301 301 301 301 301 303 302 302 304 305 305 306 306 306 306 311 311 310 309 306 305 303 301 298 297 295
295 296 297 296 298 299 298 297 297 296 295 296 297 298 297 297 297 298 298 299 300 301 301 301 303 302 302 302 303 303 303 305 304 306 307 309 308 306 304 303 302 301 299 298 296
Wind_Speed
20 19 18 18 16 14 14 16 21 15 11 10 12 11 10 13 16 17 18 16 12 22 18 16 13 9 8 10 7 4 5 10 15 9 8 0 4 1 2 3 7 7 2 7 19
20 20 19 19 18 19 16 13 16 19 14 11 8 12 9 9 11 17 21 19 18 17 15 12 8 8 6 10 6 12 10 14 9 7 7 9 7 7 5 11 10 8 5 14 17
18 20 17 22 23 20 19 14 14 16 20 14 11 8 11 7 8 6 9 14 19 20 19 13 12 7 12 16 13 9 15 15 10 10 11 11 12 7 9 11 12 14 12 16 18
22 17 18 19 17 15 18 18 14 14 13 18 13 11 9 5 4 3 5 5 5 13 16 12 9 10 11 18 18 12 16 20 10 9 8 13 15 11 12 10 3 4 17 17 19
17 23 20 17 18 19 16 17 15 13 13 14 14 11 8 9 12 6 5 5 6 6 9 11 12 12 14 13 16 15 19 18 22 12 11 16 17 17 16 11 4 2 12 16 17
17 14 19 17 17 17 17 17 13 15 12 12 13 12 10 13 8 13 9 4 2 1 4 7 7 11 8 17 13 5 16 23 19 16 9 13 20 8 14 14 12 8 10 14 16
10 16 16 16 17 17 15 17 16 14 14 12 17 12 12 15 3 5 10 12 10 4 4 4 4 7 6 6 15 11 9 12 20 22 13 9 20 19 23 13 9 14 12 12 16
9 14 13 14 12 16 16 15 17 18 14 14 13 12 10 11 16 10 4 0 6 8 6 3 3 5 5 3 3 11 13 16 13 18 8 12 17 14 25 20 19 19 15 17 15
9 10 11 9 10 13 14 13 16 17 16 13 9 10 12 10 15 17 14 8 3 1 5 2 4 6 7 5 4 9 14 19 17 11 13 16 12 18 12 8 18 21 21 19 16
14 12 7 7 9 9 12 13 10 15 13 12 11 7 12 12 9 11 15 14 10 5 5 8 8 7 9 10 10 10 16 18 15 13 13 17 16 14 3 8 17 17 15 18 22
11 10 10 6 6 7 9 7 6 7 16 10 6 8 2 13 8 8 8 14 12 11 10 16 9 12 15 15 15 6 9 12 11 4 5 18 18 18 21 13 12 9 13 19 19
12 11 10 9 5 8 8 7 7 4 9 20 17 18 2 13 10 9 12 12 14 14 14 7 16 15 10 12 13 13 11 11 11 3 6 13 15 16 17 19 24 22 23 18 14
11 10 8 8 5 9 9 8 8 7 3 10 27 20 13 10 8 18 15 17 15 16 17 17 2 16 13 12 14 15 16 12 5 4 9 11 18 20 18 23 23 22 24 23 23
14 9 7 10 6 7 9 9 9 6 3 9 12 11 22 12 9 11 17 12 10 17 17 15 22 8 16 15 14 16 13 14 13 6 7 4 8 12 15 14 13 20 22 21 19
14 10 9 10 4 6 6 5 9 6 5 14 10 6 18 19 10 18 14 16 13 11 14 12 11 16 15 15 15 13 12 10 12 11 11 17 8 12 10 11 12 10 6 8 8
11 10 12 8 7 8 5 6 12 4 7 6 3 12 14 24 12 8 13 15 10 14 16 20 5 13 18 11 11 4 7 7 8 9 11 18 14 11 13 12 7 6 4 2 2
11 10 12 8 4 9 8 13 4 7 2 6 4 10 17 10 16 11 11 15 10 10 14 15 16 6 6 12 12 13 13 5 6 6 9 2 13 17 5 3 1 3 1 3 4
11 13 12 7 8 6 11 2 4 6 5 1 5 9 7 12 13 16 11 15 20 14 7 13 10 18 13 13 7 17 17 6 7 8 10 6 9 4 2 5 3 3 4 4 5
14 14 9 7 9 8 9 8 4 5 5 8 9 7 5 8 8 15 12 13 16 18 8 7 20 8 14 15 14 14 18 15 5 2 3 7 9 3 6 5 5 5 4 4 5
20 12 7 8 8 9 3 7 3 2 2 12 6 6 10 11 9 14 12 5 15 16 15 6 6 11 16 16 19 16 12 12 7 6 9 10 13 9 9 11 8 7 6 6 6
20 9 7 7 7 4 4 1 2 1 1 3 4 4 5 7 10 13 8 5 9 12 16 8 2 5 12 15 17 14 11 9 10 10 8 11 11 6 9 10 10 6 6 7 8
14 4 12 10 3 2 2 2 2 2 1 2 3 4 6 12 5 7 9 2 2 4 10 16 3 8 10 7 16 19 20 17 7 10 11 7 5 1 5 3 7 9 10 9 8
9 6 10 14 3 3 1 1 3 4 1 2 3 2 5 6 4 5 4 2 4 7 5 9 4 6 4 6 4 10 14 18 17 13 11 11 7 5 7 7 9 12 11 10 9
8 4 2 6 2 1 2 2 2 7 4 4 3 3 7 4 4 5 6 3 2 1 4 2 5 7 10 3 1 5 12 11 10 8 15 14 15 8 9 10 9 10 10 10 9
5 2 2 4 3 2 0 1 2 2 3 2 2 3 3 4 4 3 6 3 3 4 2 2 3 4 9 5 6 5 7 9 9 12 7 12 13 6 13 12 11 10 10 9 8
5 5 4 3 7 6 2 2 2 2 4 3 5 5 5 4 4 6 6 6 3 4 2 4 2 1 1 5 6 8 8 8 9 5 9 9 8 8 6 10 13 13 12 11 9
8 12 6 3 2 2 2 3 2 2 5 5 10 9 9 7 9 9 7 5 4 5 4 1 3 4 3 2 4 6 13 12 9 7 3 3 2 3 1 7 12 13 12 11 12
Wind_Direction
268 270 261 264 256 260 265 259 254 250 246 259 248 256 263 263 264 264 260 247 256 247 251 255 268 271 259 254 227 212 239 237 231 240 244 94 274 169 274 198 198 182 25 121 158
269 268 265 262 266 255 258 260 253 247 249 257 260 246 265 271 268 261 256 252 245 242 243 250 245 263 252 247 229 222 233 234 243 275 290 323 307 306 235 201 195 176 134 147 162
274 265 268 265 269 266 253 256 235 243 246 253 256 257 245 269 288 255 247 251 243 239 232 233 228 242 227 237 227 234 239 232 241 265 302 307 297 259 255 228 209 202 177 168 169
278 272 261 255 265 262 262 248 246 236 247 240 251 250 242 220 245 180 118 78 217 222 212 215 210 221 231 220 233 257 228 243 244 259 307 288 290 270 254 245 353 205 181 180 181
280 274 263 260 253 261 257 259 239 237 246 229 236 237 229 225 240 218 154 86 79 155 202 203 204 221 242 231 237 233 259 234 243 257 270 285 273 274 270 261 258 160 181 189 194
275 290 283 273 264 258 247 243 246 238 239 232 228 227 219 237 226 226 223 249 187 124 174 186 212 221 277 253 237 227 246 258 243 243 259 269 271 257 260 254 249 230 204 206 205
305 283 279 278 267 266 250 237 241 233 227 237 222 225 228 223 233 244 242 243 241 221 203 188 189 184 227 253 243 261 252 248 249 242 246 283 264 243 254 250 262 243 235 222 218
296 282 276 272 250 248 256 241 227 239 236 233 230 229 242 239 235 244 220 26 223 230 201 203 185 198 222 300 244 230 240 249 242 222 225 216 259 244 247 242 246 250 246 237 228
285 298 280 263 261 245 248 243 234 228 229 231 234 217 246 246 236 232 230 230 123 202 212 193 189 217 180 216 215 232 240 231 249 241 210 213 250 245 246 228 242 249 246 241 240
279 278 279 280 265 243 232 233 239 226 225 221 216 206 228 236 220 226 221 224 227 225 213 197 206 213 214 200 219 224 235 248 244 205 217 233 239 246 256 245 248 250 247 244 241
286 294 251 280 276 238 224 222 209 221 214 199 211 208 69 197 198 198 180 197 207 218 219 197 212 215 217 218 238 299 255 252 227 163 231 240 243 245 245 226 249 246 238 242 242
280 293 236 252 269 241 218 214 222 241 218 223 236 226 178 180 203 196 182 180 196 212 212 218 227 224 236 230 233 242 238 229 276 256 238 261 250 255 256 251 248 247 253 246 246
278 277 241 241 258 235 228 229 241 233 292 230 218 222 201 194 204 194 187 203 199 210 210 219 284 210 227 220 220 226 230 232 242 314 265 277 264 251 252 242 241 240 247 250 250
280 269 233 212 269 224 229 233 229 229 247 197 204 230 212 212 235 186 197 191 216 224 215 232 231 197 216 225 222 234 221 243 258 258 246 257 280 240 226 221 230 237 238 244 249
271 264 220 227 197 175 180 163 193 144 237 144 168 196 186 189 150 198 194 206 223 205 206 221 225 209 221 225 224 245 252 212 231 244 271 248 259 249 235 223 237 212 219 237 245
256 245 209 215 212 204 203 180 150 199 232 172 182 184 175 199 197 137 191 213 236 242 230 228 220 208 223 222 209 224 195 210 234 242 250 242 225 245 228 224 198 144 129 86 24
245 234 204 204 196 193 168 148 177 225 111 170 195 182 185 180 199 190 190 196 201 195 218 230 216 206 205 180 192 193 179 180 203 205 244 198 226 236 192 126 297 287 146 56 52
225 203 202 197 202 174 172 147 263 187 198 188 156 155 189 151 207 190 196 216 218 219 214 210 212 214 197 211 187 199 197 204 216 219 247 149 237 227 275 77 125 131 113 72 57
197 186 188 202 204 192 177 224 257 176 171 166 139 170 173 171 171 197 202 215 219 211 222 214 233 183 194 206 186 196 223 231 311 184 293 207 252 198 172 175 177 157 115 69 60
177 161 165 189 196 208 214 238 239 203 249 167 172 199 180 166 171 188 192 215 225 213 224 308 260 201 199 208 222 220 197 213 216 235 235 241 234 259 192 194 185 165 128 111 92
153 134 187 168 190 191 262 149 190 237 26 209 150 133 173 166 193 189 184 202 235 223 205 190 256 200 205 205 211 215 216 236 226 235 247 255 247 2 183 189 187 145 144 129 111
133 123 165 173 204 249 246 3 120 134 23 127 87 97 142 159 141 200 184 348 344 228 217 219 246 255 246 341 316 245 214 207 215 204 235 283 263 66 80 126 135 154 144 129 118
101 109 182 166 225 208 164 200 60 189 67 104 133 130 157 149 129 175 118 59 252 219 217 181 219 243 221 226 254 236 230 228 229 264 229 224 229 139 132 137 149 159 149 141 133
116 129 103 188 300 249 206 34 80 35 69 48 55 87 118 113 51 159 139 176 19 110 36 277 221 241 242 313 257 225 208 230 239 216 235 227 242 186 179 161 159 155 152 148 144
84 80 123 169 212 171 87 59 106 100 71 70 111 113 78 111 98 142 130 145 181 200 140 169 221 263 267 283 272 228 233 291 240 255 246 251 276 215 193 175 166 163 161 157 156
100 133 95 68 143 165 22 48 34 92 357 69 97 57 57 82 19 173 168 177 213 194 218 163 185 137 2 303 251 257 237 226 247 251 266 237 266 245 164 172 157 171 176 176 179
119 125 133 151 150 157 89 120 138 134 41 48 117 99 78 69 78 70 79 89 153 183 189 212 168 170 246 188 291 278 239 222 224 204 164 253 111 24 208 194 186 179 186 189 189